Eugene, OR

7:08 AM PDT on April 26, 2017 (GMT -0700)
Mahlon Sweet

Weather History for KEUG - November, 2013

Change the Weather History Date:

Tuesday, November 5, 2013

  Actual Average Record
Temperature  
Mean Temperature 52 °F 47 °F  
Max Temperature 55 °F 56 °F 75 °F (1934)
Min Temperature 48 °F 39 °F 20 °F (1935)
Degree Days  
Heating Degree Days 13 18  
Month to date heating degree days 81 86  
Since 1 July heating degree days 642 656  
Cooling Degree Days 0 0  
Month to date cooling degree days 0 0  
Year to date cooling degree days 411 239  
Moisture  
Dew Point 49 °F    
Average Humidity 88    
Maximum Humidity 93    
Minimum Humidity 83    
Precipitation  
Precipitation 0.05 in 0.22 in 1.38 in (1991)
Month to date precipitation 0.46 0.98  
Year to date precipitation 18.04 31.53  
Snow  
Snow 0.00 in - - ()
Month to date snowfall  
Since 1 July snowfall 0.0  
Since 1 September snowfall 0.0  
Snow Depth 0.00 in    
Sea Level Pressure  
Sea Level Pressure 30.21 in    
Wind  
Wind Speed 9 mph (South)    
Max Wind Speed 13 mph    
Max Gust Speed 16 mph    
Visibility 9 miles    
Events Rain    
T = Trace of Precipitation, MM = Missing Value Source: NWS Daily Summary

Daily Weather History Graph

Daily Weather History Graph

Search for Another Location

Airport or City:

Trip Planner

Search our weather history database for the weather conditions in past years. The results will help you decide how hot, cold, wet, or windy it might be!

Date:

Astronomy

Nov. 05, 2013 Rise Set
Actual Time 6:55 AM PST 4:57 PM PST
Civil Twilight 6:24 AM PST 5:27 PM PST
Nautical Twilight 5:50 AM PST 6:01 PM PST
Astronomical Twilight 5:16 AM PST 6:35 PM PST
Moon 9:19 AM PST (11/5) 7:00 PM PST (11/5)
Length of Visible Light 11h 02m
Length of Day
10h 01m
Waxing Crescent, 7% of the Moon is Illuminated
Nov 5
Waxing Crescent
Nov 9
First Quarter
Nov 17
Full
Nov 25
Last Quarter
Dec 2
New

Hourly Weather History & Observations

Time (PST) Temp. Dew Point Humidity Pressure Visibility Wind Dir Wind Speed Gust Speed Precip Events Conditions
12:54 AM 48.0 °F 46.0 °F 93% 30.15 in 10.0 mi SSE 8.1 mph - N/A   Overcast
1:54 AM 48.0 °F 46.0 °F 93% 30.16 in 10.0 mi SSE 8.1 mph - 0.00 in Rain Light Rain
2:54 AM 48.0 °F 46.0 °F 93% 30.15 in 10.0 mi SSE 11.5 mph - 0.03 in Rain Light Rain
3:54 AM 48.0 °F 46.0 °F 93% 30.15 in 7.0 mi SSE 10.4 mph - 0.01 in   Overcast
4:54 AM 48.0 °F 46.0 °F 93% 30.15 in 10.0 mi SSE 9.2 mph - N/A   Overcast
5:54 AM 48.0 °F 46.0 °F 93% 30.15 in 10.0 mi South 9.2 mph - 0.00 in Rain Light Rain
6:54 AM 48.9 °F 46.9 °F 93% 30.17 in 6.0 mi SSE 8.1 mph - 0.01 in Rain Light Rain
7:54 AM 48.9 °F 46.9 °F 93% 30.18 in 7.0 mi South 6.9 mph - 0.00 in   Overcast
8:54 AM 51.1 °F 48.0 °F 89% 30.21 in 10.0 mi South 10.4 mph - 0.00 in   Overcast
9:32 AM 51.8 °F 48.2 °F 88% 30.19 in 9.0 mi South 10.4 mph - 0.00 in Rain Light Rain
9:54 AM 51.1 °F 48.0 °F 89% 30.21 in 9.0 mi South 11.5 mph - 0.00 in   Overcast
10:25 AM 51.8 °F 48.2 °F 88% 30.20 in 9.0 mi South 9.2 mph - N/A   Overcast
10:54 AM 53.1 °F 48.9 °F 86% 30.21 in 9.0 mi South 11.5 mph - N/A   Overcast
11:54 AM 54.0 °F 50.0 °F 86% 30.20 in 10.0 mi SSW 10.4 mph - N/A   Overcast
12:19 PM 55.4 °F 50.0 °F 82% 30.18 in 10.0 mi South 10.4 mph - N/A   Overcast
12:54 PM 54.0 °F 50.0 °F 86% 30.19 in 10.0 mi SSW 8.1 mph - N/A   Overcast
1:24 PM 53.6 °F 50.0 °F 88% 30.19 in 10.0 mi South 6.9 mph - N/A   Overcast
1:54 PM 54.0 °F 50.0 °F 86% 30.20 in 10.0 mi South 8.1 mph - N/A   Overcast
2:54 PM 53.1 °F 51.1 °F 93% 30.20 in 6.0 mi South 9.2 mph - N/A   Overcast
3:54 PM 54.0 °F 51.1 °F 90% 30.21 in 10.0 mi South 6.9 mph - N/A   Overcast
4:54 PM 53.1 °F 51.1 °F 93% 30.21 in 10.0 mi South 8.1 mph - N/A   Overcast
5:54 PM 53.1 °F 51.1 °F 93% 30.23 in 10.0 mi South 5.8 mph - N/A   Overcast
6:50 PM 53.6 °F 51.8 °F 94% 30.24 in 4.0 mi South 3.5 mph - 0.01 in   Overcast
6:54 PM 53.1 °F 52.0 °F 96% 30.25 in 4.0 mi SSE 3.5 mph - 0.01 in   Overcast
7:54 PM 53.1 °F 51.1 °F 93% 30.25 in 8.0 mi South 5.8 mph - N/A   Overcast
8:39 PM 51.8 °F 51.8 °F 100% 30.25 in 10.0 mi SSE 4.6 mph - N/A   Overcast
8:54 PM 52.0 °F 51.1 °F 97% 30.25 in 10.0 mi SSE 4.6 mph - N/A   Overcast
9:54 PM 52.0 °F 51.1 °F 97% 30.27 in 9.0 mi SSE 4.6 mph - N/A   Overcast
10:54 PM 53.1 °F 51.1 °F 93% 30.27 in 10.0 mi SSE 5.8 mph - N/A   Overcast
11:54 PM 53.1 °F 51.1 °F 93% 30.27 in 10.0 mi South 4.6 mph - N/A   Overcast